TimeEST,TemperatureF,Dew PointF,Humidity,Sea Level PressureIn,VisibilityMPH,Wind Direction,Wind SpeedMPH,Gust SpeedMPH,PrecipitationIn,Events,Conditions,WindDirDegrees,DateUTC
12:53 AM,21.9,12.9,68,30.11,10.0,WNW,8.1,19.6,N/A,,Overcast,290,2013-01-02 05:53:00
1:53 AM,21.9,12.9,68,30.11,10.0,West,11.5,-,N/A,,Overcast,270,2013-01-02 06:53:00
2:53 AM,23.0,14.0,68,30.12,10.0,West,9.2,-,N/A,,Overcast,270,2013-01-02 07:53:00
3:53 AM,23.0,14.0,68,30.13,10.0,West,6.9,-,N/A,,Overcast,260,2013-01-02 08:53:00
4:53 AM,23.0,15.1,72,30.11,10.0,WSW,4.6,-,N/A,,Overcast,250,2013-01-02 09:53:00
5:53 AM,24.1,16.0,71,30.12,9.0,WSW,5.8,-,0.00,Snow,Light Snow,250,2013-01-02 10:53:00
6:53 AM,25.0,16.0,69,30.12,10.0,WNW,10.4,-,0.00,,Overcast,290,2013-01-02 11:53:00
7:53 AM,25.0,17.1,72,30.14,10.0,West,9.2,-,N/A,,Overcast,260,2013-01-02 12:53:00
8:53 AM,25.0,17.1,72,30.14,9.0,West,8.1,-,0.00,Snow,Light Snow,280,2013-01-02 13:53:00
9:53 AM,26.6,17.6,69,30.13,6.0,West,9.2,-,N/A,Snow,Light Snow,280,2013-01-02 14:53:00
10:53 AM,27.0,19.0,72,30.18,9.0,West,9.2,-,0.00,Snow,Light Snow,260,2013-01-02 15:53:00
11:53 AM,27.0,19.9,75,30.17,7.0,WSW,8.1,-,0.00,Snow,Light Snow,250,2013-01-02 16:53:00
12:53 PM,27.0,19.9,75,30.16,6.0,West,11.5,-,0.00,Snow,Light Snow,260,2013-01-02 17:53:00
1:53 PM,27.0,19.9,75,30.15,9.0,WSW,12.7,-,0.00,Snow,Light Snow,250,2013-01-02 18:53:00
2:53 PM,27.0,19.9,75,30.14,9.0,WSW,9.2,-,0.00,Snow,Light Snow,250,2013-01-02 19:53:00
3:45 PM,26.6,21.2,80,30.11,9.0,WSW,8.1,-,0.00,,Overcast,250,2013-01-02 20:45:00
3:53 PM,27.0,21.0,78,30.14,10.0,WSW,6.9,-,0.00,,Overcast,250,2013-01-02 20:53:00
4:53 PM,27.0,21.0,78,30.15,10.0,WSW,4.6,-,N/A,,Overcast,240,2013-01-02 21:53:00
5:15 PM,26.6,21.2,80,30.12,10.0,SSW,3.5,-,N/A,,Overcast,200,2013-01-02 22:15:00
5:53 PM,27.0,21.0,78,30.16,10.0,South,6.9,-,N/A,,Overcast,190,2013-01-02 22:53:00
6:53 PM,27.0,19.9,75,30.17,10.0,South,9.2,-,N/A,,Overcast,190,2013-01-02 23:53:00
7:53 PM,26.1,19.0,75,30.16,10.0,South,11.5,-,N/A,,Overcast,180,2013-01-03 00:53:00
8:53 PM,25.0,16.0,69,30.16,10.0,South,15.0,-,N/A,,Overcast,190,2013-01-03 01:53:00
9:53 PM,21.9,14.0,72,30.16,10.0,South,9.2,-,N/A,,Scattered Clouds,190,2013-01-03 02:53:00
10:53 PM,19.0,10.9,71,30.16,10.0,South,4.6,-,N/A,,Clear,180,2013-01-03 03:53:00
11:53 PM,17.1,10.9,77,30.15,10.0,South,9.2,-,N/A,,Clear,170,2013-01-03 04:53:00